Retour au catalogue

METEOR 2-11 DEB

ActifPO
NORAD 40705·DEBRIS·🇷🇺 Russia

Lancé Jul 5, 1984 depuis Plesetsk Cosmodrome

Loading…

Prochains Passages (prochaines 24 heures)

TLE

FraisSource: Space-Track

Époque: Sep 13, 2026, 09:34 UTC

1 40705U 84072G   26256.39887725  .00001839  00000-0  12775-2 0  9992
2 40705  82.5165 295.1887 0031790 141.8535 218.4892 13.98110381599666

Suivez METEOR 2-11 DEB en temps réel avec AllMySat

Download on the App Store